COSMOS 2499 DEB, 49944

Orbit data source: Space-Track

COSMOS 2499 DEB, 49944 is space debris in LEO originally from a launch on Fri, 23 May 2014 UTC launched from the Plesetsk Missile And Space Complex (PKMTR). Debris objects in space refer to the collection of defunct objects orbiting the Earth. Examples of debris include non-operational satellites, rocket bodies, and fragments generated from explosions, collisions, or faulty payload assembly.

Loading next visibility...
Identifier
49944, 2014-028AB
Orbit
LEO
Country
Flag of CISCIS
Related business
Manufacturer
TsNIIKhM
Mission
Spacecraft
Bus & Motor
Unknown
Mass
Unknown
Launch date (UTC)
2014-05-23 (12 years ago)
Launch vehicle
Unknown
Launch site
Plesetsk Missile And Space Complex (PKMTR)
Object type
Payload
Rocket body
Debris
Shape & HBR
Unknown shape, 0.1 m
Radar Cross Section
Small (<0.1 m²)

Expand to show TLE details & history
Last TLE update: 4 days ago

TLE from 4 days ago
0 COSMOS 2499 DEB
1 49944U 14028AB  25346.85485350 -.00001019  00000-0 -39908-2 0  9997
2 49944  82.4545  23.7894 0219860 101.1088 261.4820 12.81951185191148
Epoch: 2025-12-12T20:30Z
TLE epoch observation values (Epoch: 2025-12-12T20:30:59.342Z)
Latitude
-0.00007°
Longitude
-5.74836°
Altitude
1,365.139 km
Speed
7.163 km/s
True Right ascension
01h 35m 09s
True Declination
0° 00' 00"
Sunlit
Object was in daylight at epoch
Visualization orbit readout
Latitude
Unknown
Longitude
Unknown
Altitude
Unknown
Speed
Unknown
Apparent Right ascension
Unknown
Apparent Declination
Unknown
Sunlit
N/A
Visualization observer readout
Local Sidereal Time
11:10:55
Azimuth
Unknown
Elevation
Unknown
Doppler factor
Unknown
Orbital elements
Apogee altitude
1,500.422 km
Perigee altitude
1,161.439 km
Semi-major axis
7,709.068 km
Eccentricity
0.02199
Inclination
82.4545°
RAAN
23.7894°
Arg. of periapsis
101.1088°
True anomaly
259.00126°
Mean anomaly
261.482°
Eccentric anomaly
260.24053°
Mean motion
3.20657 °/min
Orbital period
112.27 mins
BSTAR
-0.0039908
Loading maneuver chart data...
Computing Atmospheric mass density...
Loading historical data...
Loading historical data...
Loading historical data...
Loading historical data...
Loading historical data...
Loading historical data...
Loading historical data...

Documentation

Showing up to 5 results
|